FENGYUN 1C DEB, 31559

Orbit data source: Space-Track

FENGYUN 1C DEB, 31559 is space debris in SSO originally from a launch on Mon, 10 May 1999 UTC launched from the Taiyaun Space Center, China (TSC). Fengyun 1C debris stems from the Chinese weather satellite Fengyun-1C, which was intentionally destroyed by a Chinese anti-satellite missile in 2007. This event dramatically increased the amount of space debris, with thousands of trackable fragments posing hazards to satellites and human spaceflight. The Fengyun 1C debris cloud has become a focal point in discussions about space sustainability and the need for international regulations to prevent the creation of new debris.

Loading next visibility...
Identifier
31559, 1999-025BZA
Orbit
SSO
Country
Flag of CNCN / PRC
Related business
Manufacturer
Unknown
Mission
Spacecraft
Bus & Motor
Unknown
Mass
Unknown
Launch date (UTC)
1999-05-10 (27 years ago)
Launch vehicle
Unknown
Launch site
Taiyaun Space Center, China (TSC)
Object type
Payload
Rocket body
Debris
Shape & HBR
Unknown shape, 0.1 m
Radar Cross Section
Small (<0.1 m²)

Expand to show TLE details & history
Last TLE update: 15 hours ago

TLE from 15 hours ago
0 FENGYUN 1C DEB
1 31559U 99025BZA 26062.87429530  .00013391  00000-0  24484-2 0  9993
2 31559  98.8745  28.1995 0053625 306.5230  80.8606 14.65087367987447
Epoch: 2026-03-03T20:58Z
TLE epoch observation values (Epoch: 2026-03-03T20:58:59.113Z)
Latitude
27.6698°
Longitude
-92.86459°
Altitude
674.413 km
Speed
7.525 km/s
True Right ascension
01h 34m 06s
True Declination
27° 31' 37"
Sunlit
Object was in daylight at epoch
Visualization orbit readout
Latitude
Unknown
Longitude
Unknown
Altitude
Unknown
Speed
Unknown
Apparent Right ascension
Unknown
Apparent Declination
Unknown
Sunlit
N/A
Visualization observer readout
Local Sidereal Time
15:28:01
Azimuth
Unknown
Elevation
Unknown
Doppler factor
Unknown
Orbital elements
Apogee altitude
711.718 km
Perigee altitude
636.085 km
Semi-major axis
7,052.039 km
Eccentricity
0.00536
Inclination
98.8745°
RAAN
28.1995°
Arg. of periapsis
306.523°
True anomaly
81.46793°
Mean anomaly
80.8606°
Eccentric anomaly
81.1642°
Mean motion
3.66498 °/min
Orbital period
98.23 mins
BSTAR
0.0024484
Loading maneuver chart data...
Computing Atmospheric mass density...

Documentation

Showing up to 5 results
|